EJU654N LFMN-LFRN

Flight info

Callsign EJU654N
Flight time 1h 32m
Altitude 36000
Route BODRU DCT KOTIT DCT ETREK DCT NOQAS DCT LERGA DCT FOUCO DCT MANAK UY110 TIRAV/N0431F340 UT501 USODA/N0342F180 T501 ENOKI
Aircraft A320/M-SDE2E3FGHIJ1RWXYZ/LB1

Departure

Time 2026-04-23 13:18
Airport Nice-Côte d'Azur Airport (LFMN)

Arrival

Time 2026-04-23 14:50
Airport Rennes-Saint-Jacques Airport (LFRN)
Time Latitude Longitude Altitude Speed Heading
2026-04-23 13:14 43.66177 7.20779 23 ft 0 kts 171°
2026-04-23 13:15 43.66127 7.20790 22 ft 14 kts 171°
2026-04-23 13:15 43.66021 7.20814 21 ft 16 kts 170°
2026-04-23 13:15 43.65905 7.20841 21 ft 17 kts 171°
2026-04-23 13:15 43.65772 7.20871 22 ft 24 kts 171°
2026-04-23 13:16 43.65588 7.20914 23 ft 27 kts 170°
2026-04-23 13:16 43.65402 7.20952 22 ft 27 kts 176°
2026-04-23 13:16 43.65257 7.20817 21 ft 26 kts 220°
2026-04-23 13:16 43.65124 7.20646 21 ft 26 kts 226°
2026-04-23 13:17 43.65020 7.20634 24 ft 15 kts 140°
2026-04-23 13:17 43.65023 7.20730 23 ft 10 kts 47°
2026-04-23 13:17 43.65035 7.20747 23 ft 0 kts 47°
2026-04-23 13:17 43.65054 7.20775 22 ft 26 kts 43°
2026-04-23 13:18 43.65376 7.21214 23 ft 99 kts 46°
2026-04-23 13:18 43.66006 7.22082 23 ft 155 kts 46°
2026-04-23 13:18 43.66837 7.23265 238 ft 179 kts 58°
2026-04-23 13:18 43.67047 7.24874 778 ft 176 kts 110°
2026-04-23 13:19 43.66268 7.26088 1450 ft 173 kts 152°
2026-04-23 13:19 43.65162 7.26971 1782 ft 196 kts 143°
2026-04-23 13:19 43.64109 7.28309 2182 ft 214 kts 135°
2026-04-23 13:19 43.63048 7.29766 2973 ft 214 kts 135°
2026-04-23 13:20 43.61931 7.31146 3714 ft 220 kts 149°
2026-04-23 13:20 43.60448 7.31696 4362 ft 228 kts 184°
2026-04-23 13:20 43.58946 7.30988 5008 ft 233 kts 212°
2026-04-23 13:20 43.57561 7.29796 5697 ft 237 kts 213°
2026-04-23 13:21 43.56171 7.28545 6360 ft 241 kts 221°
2026-04-23 13:21 43.55173 7.26713 6972 ft 242 kts 252°
2026-04-23 13:21 43.54956 7.24480 7570 ft 239 kts 282°
2026-04-23 13:21 43.55540 7.22324 7928 ft 237 kts 309°
2026-04-23 13:22 43.56552 7.20539 8002 ft 236 kts 312°
2026-04-23 13:22 43.57562 7.18791 8011 ft 236 kts 311°
2026-04-23 13:22 43.58584 7.17018 8008 ft 236 kts 311°
2026-04-23 13:22 43.59602 7.15241 8009 ft 236 kts 311°
2026-04-23 13:23 43.60617 7.13462 8008 ft 236 kts 312°
2026-04-23 13:23 43.61798 7.11864 8021 ft 251 kts 323°
2026-04-23 13:23 43.63226 7.10259 8008 ft 272 kts 323°
2026-04-23 13:23 43.64705 7.08583 8010 ft 276 kts 323°
2026-04-23 13:24 43.66191 7.06889 8008 ft 277 kts 323°
2026-04-23 13:24 43.67678 7.05188 8006 ft 277 kts 322°
2026-04-23 13:24 43.69162 7.03487 8010 ft 277 kts 322°
2026-04-23 13:24 43.70644 7.01789 8005 ft 277 kts 323°
2026-04-23 13:25 43.72130 7.00089 8007 ft 277 kts 323°
2026-04-23 13:25 43.73612 6.98392 8003 ft 277 kts 322°
2026-04-23 13:25 43.75096 6.96694 8002 ft 277 kts 323°
2026-04-23 13:25 43.76581 6.94993 7995 ft 277 kts 322°
2026-04-23 13:26 43.77561 6.93869 7996 ft 277 kts 322°
2026-04-23 13:26 43.79045 6.92167 7991 ft 277 kts 322°
2026-04-23 13:26 43.80527 6.90467 7988 ft 277 kts 322°
2026-04-23 13:26 43.82013 6.88760 7995 ft 278 kts 322°
2026-04-23 13:27 43.83496 6.87055 7979 ft 277 kts 322°
2026-04-23 13:27 43.84980 6.85346 7979 ft 278 kts 322°
2026-04-23 13:27 43.86467 6.83630 7977 ft 278 kts 322°
2026-04-23 13:27 43.87953 6.81917 7971 ft 278 kts 322°
2026-04-23 13:28 43.89440 6.80203 7975 ft 278 kts 322°
2026-04-23 13:28 43.90923 6.78488 7971 ft 278 kts 322°
2026-04-23 13:28 43.92404 6.76776 7973 ft 277 kts 322°
2026-04-23 13:28 43.93899 6.75096 7968 ft 276 kts 325°
2026-04-23 13:29 43.95516 6.73669 7970 ft 275 kts 332°
2026-04-23 13:29 43.97181 6.72346 7968 ft 276 kts 332°
2026-04-23 13:29 43.98842 6.71019 7964 ft 275 kts 332°
2026-04-23 13:29 44.00501 6.69689 7969 ft 276 kts 331°
2026-04-23 13:30 44.02164 6.68356 7965 ft 276 kts 331°
2026-04-23 13:30 44.03834 6.67015 7961 ft 278 kts 332°
2026-04-23 13:30 44.05511 6.65668 8420 ft 285 kts 332°
2026-04-23 13:30 44.07218 6.64296 9356 ft 284 kts 332°
2026-04-23 13:31 44.08932 6.62916 10285 ft 285 kts 332°
2026-04-23 13:31 44.10692 6.61503 10788 ft 303 kts 332°
2026-04-23 13:31 44.12591 6.59983 11166 ft 325 kts 332°
2026-04-23 13:31 44.14579 6.58386 11737 ft 334 kts 332°
2026-04-23 13:32 44.16609 6.56746 12402 ft 340 kts 331°
2026-04-23 13:32 44.18493 6.54730 13059 ft 349 kts 316°
2026-04-23 13:32 44.19974 6.52009 13724 ft 357 kts 300°
2026-04-23 13:32 44.20891 6.48775 14336 ft 363 kts 283°
2026-04-23 13:33 44.21138 6.45266 14931 ft 367 kts 267°
2026-04-23 13:33 44.21112 6.41694 15543 ft 371 kts 275°
2026-04-23 13:33 44.21640 6.38172 16142 ft 374 kts 289°
2026-04-23 13:33 44.22727 6.34871 16763 ft 376 kts 302°
2026-04-23 13:34 44.24268 6.31922 17372 ft 378 kts 310°
2026-04-23 13:34 44.25942 6.29076 17993 ft 381 kts 310°
2026-04-23 13:34 44.27612 6.26197 18551 ft 384 kts 309°
2026-04-23 13:34 44.29291 6.23276 19076 ft 387 kts 309°
2026-04-23 13:35 44.30977 6.20336 19639 ft 389 kts 309°
2026-04-23 13:35 44.32675 6.17376 20176 ft 392 kts 309°
2026-04-23 13:35 44.34384 6.14399 20712 ft 394 kts 309°
2026-04-23 13:35 44.36101 6.11409 21254 ft 396 kts 309°
2026-04-23 13:36 44.37831 6.08394 21790 ft 399 kts 309°
2026-04-23 13:36 44.39570 6.05363 22316 ft 401 kts 310°
2026-04-23 13:36 44.41323 6.02310 22859 ft 404 kts 310°
2026-04-23 13:36 44.43088 5.99235 23391 ft 406 kts 310°
2026-04-23 13:37 44.44859 5.96149 23905 ft 408 kts 310°
2026-04-23 13:37 44.46637 5.93041 24363 ft 409 kts 310°
2026-04-23 13:37 44.48390 5.89973 24838 ft 409 kts 310°
2026-04-23 13:37 44.50162 5.86866 25323 ft 408 kts 310°
2026-04-23 13:38 44.51931 5.83761 25790 ft 408 kts 310°
2026-04-23 13:38 44.53703 5.80650 26249 ft 408 kts 310°
2026-04-23 13:38 44.55472 5.77541 26702 ft 408 kts 310°
2026-04-23 13:38 44.57238 5.74432 27144 ft 408 kts 310°
2026-04-23 13:39 44.59008 5.71312 27590 ft 408 kts 310°
2026-04-23 13:39 44.60771 5.68200 27997 ft 407 kts 310°
2026-04-23 13:39 44.62533 5.65086 28415 ft 407 kts 310°
2026-04-23 13:39 44.64295 5.61971 28831 ft 407 kts 310°
2026-04-23 13:40 44.66053 5.58852 29243 ft 407 kts 310°
2026-04-23 13:40 44.67806 5.55734 29650 ft 407 kts 310°
2026-04-23 13:40 44.69562 5.52612 30016 ft 407 kts 310°
2026-04-23 13:40 44.71319 5.49490 30313 ft 407 kts 310°
2026-04-23 13:41 44.73079 5.46362 30513 ft 408 kts 310°
2026-04-23 13:41 44.74845 5.43222 30731 ft 410 kts 310°
2026-04-23 13:41 44.76617 5.40069 30956 ft 412 kts 310°
2026-04-23 13:41 44.78394 5.36902 31165 ft 413 kts 310°
2026-04-23 13:42 44.80178 5.33715 31394 ft 414 kts 309°
2026-04-23 13:42 44.81954 5.30534 31694 ft 413 kts 309°
2026-04-23 13:42 44.83727 5.27357 31989 ft 413 kts 309°
2026-04-23 13:42 44.85500 5.24172 32273 ft 412 kts 309°
2026-04-23 13:43 44.87268 5.20998 32555 ft 412 kts 309°
2026-04-23 13:43 44.89012 5.17871 32850 ft 411 kts 309°
2026-04-23 13:43 44.90774 5.14708 33168 ft 410 kts 309°
2026-04-23 13:43 44.92532 5.11549 33497 ft 409 kts 309°
2026-04-23 13:44 44.94283 5.08391 33820 ft 408 kts 309°
2026-04-23 13:44 44.96025 5.05248 34142 ft 407 kts 309°
2026-04-23 13:44 44.97769 5.02098 34413 ft 406 kts 309°
2026-04-23 13:44 44.99510 4.98956 34647 ft 406 kts 309°
2026-04-23 13:45 45.01251 4.95808 34855 ft 407 kts 309°
2026-04-23 13:45 45.02994 4.92652 35080 ft 407 kts 309°
2026-04-23 13:45 45.04733 4.89497 35271 ft 407 kts 309°
2026-04-23 13:45 45.06473 4.86333 35476 ft 408 kts 309°
2026-04-23 13:46 45.08211 4.83169 35663 ft 408 kts 309°
2026-04-23 13:46 45.09955 4.79995 35857 ft 408 kts 309°
2026-04-23 13:46 45.11694 4.76824 36049 ft 408 kts 309°
2026-04-23 13:46 45.13431 4.73649 36203 ft 409 kts 309°
2026-04-23 13:47 45.15166 4.70475 36252 ft 406 kts 309°
2026-04-23 13:47 45.18175 4.63731 36241 ft 408 kts 294°
2026-04-23 13:48 45.19431 4.55867 36239 ft 413 kts 280°
2026-04-23 13:48 45.20076 4.47827 36237 ft 413 kts 280°
2026-04-23 13:49 45.20734 4.39745 36236 ft 412 kts 280°
2026-04-23 13:49 45.21381 4.31670 36234 ft 412 kts 280°
2026-04-23 13:50 45.22015 4.23594 36235 ft 412 kts 280°
2026-04-23 13:50 45.22644 4.15540 36233 ft 411 kts 280°
2026-04-23 13:51 45.23272 4.07479 36231 ft 411 kts 280°
2026-04-23 13:51 45.23896 3.99430 36233 ft 410 kts 280°
2026-04-23 13:52 45.24510 3.91387 36235 ft 410 kts 280°
2026-04-23 13:52 45.25113 3.83347 36237 ft 410 kts 280°
2026-04-23 13:53 45.25731 3.75322 36235 ft 408 kts 283°
2026-04-23 13:53 45.26997 3.67524 36228 ft 405 kts 287°
2026-04-23 13:54 45.28302 3.59746 36224 ft 405 kts 287°
2026-04-23 13:54 45.29588 3.51968 36216 ft 405 kts 287°
2026-04-23 13:55 45.30858 3.44238 36210 ft 404 kts 287°
2026-04-23 13:55 45.32137 3.36467 36202 ft 404 kts 287°
2026-04-23 13:56 45.33412 3.28699 36206 ft 404 kts 287°
2026-04-23 13:56 45.34677 3.20932 36207 ft 403 kts 287°
2026-04-23 13:57 45.35935 3.13162 36203 ft 403 kts 287°
2026-04-23 13:57 45.37182 3.05405 36209 ft 402 kts 287°
2026-04-23 13:58 45.38430 2.97653 36209 ft 402 kts 287°
2026-04-23 13:58 45.39671 2.89911 36215 ft 401 kts 287°
2026-04-23 13:59 45.40906 2.82175 36206 ft 401 kts 286°
2026-04-23 13:59 45.42133 2.74435 36197 ft 401 kts 286°
2026-04-23 14:00 45.43150 2.68009 36193 ft 401 kts 286°
2026-04-23 14:00 45.44574 2.58966 36185 ft 400 kts 286°
2026-04-23 14:01 45.45775 2.51279 36191 ft 400 kts 286°
2026-04-23 14:01 45.46977 2.43536 36170 ft 400 kts 286°
2026-04-23 14:02 45.48173 2.35794 36171 ft 400 kts 286°
2026-04-23 14:02 45.49365 2.28046 36174 ft 400 kts 286°
2026-04-23 14:03 45.50556 2.20291 36180 ft 401 kts 286°
2026-04-23 14:03 45.51738 2.12529 36178 ft 401 kts 286°
2026-04-23 14:04 45.52914 2.04767 36173 ft 401 kts 285°
2026-04-23 14:04 45.54081 1.96995 36175 ft 401 kts 285°
2026-04-23 14:05 45.55252 1.89218 36172 ft 401 kts 285°
2026-04-23 14:05 45.56415 1.81440 36169 ft 401 kts 285°
2026-04-23 14:06 45.57573 1.73656 36166 ft 401 kts 285°
2026-04-23 14:06 45.58729 1.65862 36163 ft 401 kts 285°
2026-04-23 14:07 45.59882 1.58059 36161 ft 402 kts 285°
2026-04-23 14:07 45.61595 1.46405 36157 ft 402 kts 285°
2026-04-23 14:08 45.62736 1.38583 36155 ft 402 kts 285°
2026-04-23 14:08 45.63864 1.30750 36150 ft 403 kts 284°
2026-04-23 14:09 45.64993 1.22906 36150 ft 403 kts 284°
2026-04-23 14:09 45.66128 1.15065 36145 ft 403 kts 284°
2026-04-23 14:10 45.67248 1.07205 36146 ft 404 kts 284°
2026-04-23 14:10 45.68360 0.99333 36143 ft 404 kts 284°
2026-04-23 14:11 45.69472 0.91445 36139 ft 405 kts 284°
2026-04-23 14:11 45.70576 0.83552 36143 ft 405 kts 284°
2026-04-23 14:12 45.71679 0.75646 36139 ft 405 kts 284°
2026-04-23 14:12 45.72778 0.67730 36133 ft 406 kts 283°
2026-04-23 14:13 45.73862 0.59857 36128 ft 406 kts 283°
2026-04-23 14:13 45.74950 0.51924 36124 ft 406 kts 283°
2026-04-23 14:14 45.76710 0.44312 36121 ft 403 kts 297°
2026-04-23 14:14 45.79124 0.37065 36119 ft 403 kts 296°
2026-04-23 14:15 45.81521 0.29792 36118 ft 404 kts 296°
2026-04-23 14:15 45.83906 0.22507 36119 ft 404 kts 296°
2026-04-23 14:16 45.86299 0.15217 36119 ft 404 kts 296°
2026-04-23 14:16 45.88684 0.07904 36122 ft 405 kts 296°
2026-04-23 14:17 45.91069 0.00580 36119 ft 405 kts 296°
2026-04-23 14:17 45.93454 -0.06750 36121 ft 405 kts 296°
2026-04-23 14:18 45.95832 -0.14085 36125 ft 405 kts 296°
2026-04-23 14:18 45.97810 -0.20204 36121 ft 406 kts 296°
2026-04-23 14:19 46.00181 -0.27567 36122 ft 406 kts 295°
2026-04-23 14:19 46.02550 -0.34937 36123 ft 406 kts 295°
2026-04-23 14:20 46.04917 -0.42328 36123 ft 407 kts 295°
2026-04-23 14:20 46.07281 -0.49723 36124 ft 407 kts 295°
2026-04-23 14:21 46.09644 -0.57134 36125 ft 407 kts 295°
2026-04-23 14:21 46.11999 -0.64553 36126 ft 407 kts 295°
2026-04-23 14:22 46.14348 -0.71981 36130 ft 408 kts 295°
2026-04-23 14:22 46.16704 -0.79423 36127 ft 408 kts 295°
2026-04-23 14:23 46.18924 -0.86457 36124 ft 408 kts 295°
2026-04-23 14:23 46.21637 -0.93625 36121 ft 408 kts 308°
2026-04-23 14:24 46.25734 -0.99270 36120 ft 409 kts 320°
2026-04-23 14:24 46.30186 -1.04398 36121 ft 410 kts 320°
2026-04-23 14:25 46.34633 -1.09561 36121 ft 410 kts 320°
2026-04-23 14:25 46.39085 -1.14742 36123 ft 411 kts 320°
2026-04-23 14:26 46.43537 -1.19928 36122 ft 411 kts 320°
2026-04-23 14:26 46.47993 -1.25125 36135 ft 411 kts 320°
2026-04-23 14:27 46.52450 -1.30346 36142 ft 412 kts 320°
2026-04-23 14:27 46.56994 -1.35414 36143 ft 413 kts 328°
2026-04-23 14:28 46.62341 -1.38329 35996 ft 419 kts 349°
2026-04-23 14:28 46.65249 -1.38684 35731 ft 421 kts 358°
2026-04-23 14:28 46.68161 -1.38489 35242 ft 419 kts
2026-04-23 14:29 46.71068 -1.38265 34714 ft 416 kts
2026-04-23 14:29 46.73954 -1.38070 34186 ft 415 kts 360°
2026-04-23 14:29 46.76831 -1.37886 33612 ft 413 kts 359°
2026-04-23 14:29 46.79687 -1.37704 33098 ft 409 kts 359°
2026-04-23 14:30 46.82523 -1.37520 32581 ft 407 kts 360°
2026-04-23 14:30 46.84931 -1.37356 32142 ft 404 kts 360°
2026-04-23 14:30 46.87717 -1.37163 31644 ft 402 kts 360°
2026-04-23 14:30 46.90503 -1.36970 31135 ft 400 kts 360°
2026-04-23 14:31 46.93276 -1.36772 30647 ft 398 kts
2026-04-23 14:31 46.96034 -1.36572 30152 ft 396 kts
2026-04-23 14:31 46.98766 -1.36582 29651 ft 390 kts 355°
2026-04-23 14:31 47.01465 -1.36754 29206 ft 386 kts 355°
2026-04-23 14:32 47.04133 -1.36918 28763 ft 382 kts 355°
2026-04-23 14:32 47.06776 -1.37072 28330 ft 378 kts 355°
2026-04-23 14:32 47.09392 -1.37220 27899 ft 375 kts 355°
2026-04-23 14:32 47.11988 -1.37367 27463 ft 372 kts 355°
2026-04-23 14:33 47.14565 -1.37515 27020 ft 369 kts 355°
2026-04-23 14:33 47.17126 -1.37666 26577 ft 367 kts 355°
2026-04-23 14:33 47.19671 -1.37817 26135 ft 365 kts 355°
2026-04-23 14:33 47.22172 -1.37968 25689 ft 364 kts 355°
2026-04-23 14:34 47.24693 -1.38122 25226 ft 362 kts 356°
2026-04-23 14:34 47.27210 -1.38272 24759 ft 361 kts 356°
2026-04-23 14:34 47.29718 -1.38426 24277 ft 361 kts 356°
2026-04-23 14:34 47.32224 -1.38595 23799 ft 361 kts 356°
2026-04-23 14:35 47.34727 -1.38773 23251 ft 360 kts 356°
2026-04-23 14:35 47.37229 -1.38955 22778 ft 358 kts 356°
2026-04-23 14:35 47.39711 -1.39135 22307 ft 356 kts 356°
2026-04-23 14:35 47.42182 -1.39313 21840 ft 354 kts 356°
2026-04-23 14:36 47.44637 -1.39487 21373 ft 353 kts 356°
2026-04-23 14:36 47.47084 -1.39657 20928 ft 351 kts 356°
2026-04-23 14:36 47.49523 -1.39822 20472 ft 350 kts 357°
2026-04-23 14:36 47.51954 -1.39989 20020 ft 349 kts 357°
2026-04-23 14:37 47.54378 -1.40157 19573 ft 348 kts 357°
2026-04-23 14:37 47.56797 -1.40330 19128 ft 347 kts 357°
2026-04-23 14:37 47.59194 -1.40500 18745 ft 345 kts 357°
2026-04-23 14:37 47.61592 -1.40667 18372 ft 342 kts 358°
2026-04-23 14:38 47.63967 -1.40832 17825 ft 342 kts 358°
2026-04-23 14:38 47.66327 -1.40996 17412 ft 340 kts 358°
2026-04-23 14:38 47.68681 -1.41159 17000 ft 337 kts 358°
2026-04-23 14:38 47.71031 -1.41324 16574 ft 336 kts 358°
2026-04-23 14:39 47.73369 -1.41492 16187 ft 335 kts 358°
2026-04-23 14:39 47.75703 -1.41663 15724 ft 335 kts 358°
2026-04-23 14:39 47.77920 -1.42241 15299 ft 337 kts 341°
2026-04-23 14:39 47.79894 -1.43806 14908 ft 339 kts 324°
2026-04-23 14:40 47.81512 -1.46361 14508 ft 341 kts 306°
2026-04-23 14:40 47.82766 -1.49322 14105 ft 342 kts 303°
2026-04-23 14:40 47.84002 -1.52354 13659 ft 342 kts 302°
2026-04-23 14:40 47.85224 -1.55395 13141 ft 343 kts 302°
2026-04-23 14:41 47.86442 -1.58429 12715 ft 342 kts 302°
2026-04-23 14:41 47.87663 -1.61457 12315 ft 339 kts 303°
2026-04-23 14:41 47.88881 -1.64462 11907 ft 338 kts 303°
2026-04-23 14:41 47.90100 -1.67464 11478 ft 337 kts 303°
2026-04-23 14:42 47.91314 -1.70452 11050 ft 337 kts 303°
2026-04-23 14:42 47.92521 -1.73431 10590 ft 337 kts 303°
2026-04-23 14:42 47.93703 -1.76359 10402 ft 320 kts 303°
2026-04-23 14:42 47.94832 -1.79159 9877 ft 313 kts 303°
2026-04-23 14:43 47.95947 -1.81927 9241 ft 309 kts 302°
2026-04-23 14:43 47.97041 -1.84648 8723 ft 302 kts 302°
2026-04-23 14:43 47.98103 -1.87298 8292 ft 293 kts 302°
2026-04-23 14:43 47.99134 -1.89868 7883 ft 284 kts 302°
2026-04-23 14:44 48.00086 -1.92397 7484 ft 275 kts 293°
2026-04-23 14:44 48.00620 -1.95087 7070 ft 267 kts 279°
2026-04-23 14:44 48.00958 -1.97778 6641 ft 261 kts 282°
2026-04-23 14:44 48.01712 -2.00179 6202 ft 255 kts 315°
2026-04-23 14:45 48.03156 -2.01594 5791 ft 246 kts 349°
2026-04-23 14:45 48.04767 -2.01705 5592 ft 223 kts 14°
2026-04-23 14:45 48.06284 -2.01315 5098 ft 222 kts 16°
2026-04-23 14:45 48.07803 -2.00893 4595 ft 221 kts 16°
2026-04-23 14:46 48.09242 -2.00260 4155 ft 209 kts 39°
2026-04-23 14:46 48.10102 -1.98691 3750 ft 191 kts 76°
2026-04-23 14:46 48.10140 -1.96779 3373 ft 183 kts 102°
2026-04-23 14:46 48.09904 -1.94955 3041 ft 180 kts 101°
2026-04-23 14:47 48.09675 -1.93151 2747 ft 171 kts 100°
2026-04-23 14:47 48.09466 -1.91484 2438 ft 156 kts 100°
2026-04-23 14:47 48.09271 -1.89930 2157 ft 148 kts 100°
2026-04-23 14:47 48.09089 -1.88475 1900 ft 138 kts 100°
2026-04-23 14:48 48.08913 -1.87073 1729 ft 137 kts 100°
2026-04-23 14:48 48.08739 -1.85684 1551 ft 133 kts 100°
2026-04-23 14:48 48.08571 -1.84335 1377 ft 131 kts 101°
2026-04-23 14:48 48.08404 -1.82997 1214 ft 130 kts 100°
2026-04-23 14:49 48.08241 -1.81687 1019 ft 127 kts 99°
2026-04-23 14:49 48.08085 -1.80387 827 ft 127 kts 97°
2026-04-23 14:49 48.07917 -1.79080 669 ft 130 kts 98°
2026-04-23 14:49 48.07765 -1.77731 484 ft 131 kts 99°
2026-04-23 14:50 48.07588 -1.76396 292 ft 131 kts 100°
2026-04-23 14:50 48.07422 -1.75057 163 ft 131 kts 99°
2026-04-23 14:50 48.07259 -1.73752 117 ft 116 kts 101°
2026-04-23 14:50 48.07161 -1.72967 132 ft 33 kts 102°
2026-04-23 14:51 48.07134 -1.72786 131 ft 21 kts 103°
2026-04-23 14:51 48.07101 -1.72502 131 ft 30 kts 101°
2026-04-23 14:51 48.07029 -1.72406 131 ft 11 kts 194°
2026-04-23 14:51 48.06967 -1.72454 133 ft 9 kts 214°
2026-04-23 14:52 48.06937 -1.72515 133 ft 6 kts 214°
2026-04-23 14:52 48.06905 -1.72549 133 ft 5 kts 226°
2026-04-23 14:52 48.06889 -1.72572 133 ft 0 kts 225°